| time (UTC) | temp F | wind direction | speed knots | gust knots | rain 1hr in | rain 24hr in | rain mn in | humidity % | barometer mb |
| 20260505054559 | 53 | 184 | 2.6 | 7.8 | 0.00 | 0.00 | 0.00 | 74 | 1007.9 |
| 20260505053057 | 53 | 217 | 4.3 | 8.7 | 0.00 | 0.00 | 0.00 | 73 | 1007.9 |
| 20260505051554 | 54 | 229 | 2.6 | 7.0 | 0.00 | 0.00 | 0.00 | 72 | 1007.8 |
| 20260505041548 | 55 | 182 | 5.2 | 12.2 | 0.00 | 0.00 | 0.00 | 68 | 1008.0 |
| 20260505040056 | 55 | 216 | 4.3 | 9.6 | 0.00 | 0.00 | 0.00 | 66 | 1008.0 |
| 20260505034544 | 55 | 190 | 4.3 | 12.2 | 0.00 | 0.00 | 0.00 | 65 | 1007.9 |
| 20260505033040 | 56 | 205 | 4.3 | 11.3 | 0.00 | 0.00 | 0.00 | 64 | 1007.8 |
| 20260505031549 | 56 | 216 | 4.3 | 11.3 | 0.00 | 0.00 | 0.00 | 62 | 1007.8 |
| 20260505030043 | 57 | 191 | 5.2 | 12.2 | 0.00 | 0.00 | 0.00 | 60 | 1007.9 |
| 20260505024540 | 57 | 189 | 4.3 | 11.3 | 0.00 | 0.00 | 0.00 | 59 | 1007.9 |
| 20260505023038 | 57 | 234 | 4.3 | 12.2 | 0.00 | 0.00 | 0.00 | 57 | 1007.9 |
| 20260505021538 | 58 | 200 | 6.1 | 13.9 | 0.00 | 0.00 | 0.00 | 56 | 1007.9 |
| 20260505020041 | 58 | 202 | 4.3 | 11.3 | 0.00 | 0.00 | 0.00 | 54 | 1007.9 |
| 20260505014541 | 59 | 242 | 3.5 | 13.0 | 0.00 | 0.00 | 0.00 | 53 | 1007.8 |
| 20260505013035 | 59 | 210 | 4.3 | 10.4 | 0.00 | 0.00 | 0.00 | 51 | 1007.7 |
| 20260505011538 | 59 | 216 | 6.1 | 18.2 | 0.00 | 0.00 | 0.00 | 51 | 1007.3 |
| 20260505010034 | 59 | 239 | 4.3 | 13.0 | 0.00 | 0.00 | 0.00 | 51 | 1007.2 |
| 20260505004533 | 60 | 182 | 3.5 | 13.0 | 0.00 | 0.00 | 0.00 | 51 | 1006.9 |
| 20260505003032 | 61 | 196 | 4.3 | 14.8 | 0.00 | 0.00 | 0.00 | 49 | 1006.6 |
| 20260505001532 | 62 | 175 | 7.8 | 13.0 | 0.00 | 0.00 | 0.00 | 47 | 1006.1 |
| 20260505000045 | 63 | 211 | 6.1 | 24.3 | 0.00 | 0.00 | 0.00 | 43 | 1005.8 |
| 20260504234532 | 64 | 126 | 5.2 | 16.5 | 0.00 | 0.00 | 0.00 | 43 | 1005.6 |
| 20260504233029 | 65 | 213 | 7.8 | 15.6 | 0.00 | 0.00 | 0.00 | 42 | 1005.3 |
| 20260504231529 | 65 | 175 | 6.1 | 18.2 | 0.00 | 0.00 | 0.00 | 42 | 1005.0 |
| 20260504230029 | 66 | 188 | 12.2 | 22.6 | 0.00 | 0.00 | 0.00 | 40 | 1004.6 |
| 20260504224528 | 67 | 159 | 4.3 | 18.2 | 0.00 | 0.00 | 0.00 | 39 | 1004.4 |
| 20260504223029 | 67 | 176 | 7.0 | 23.5 | 0.00 | 0.00 | 0.00 | 38 | 1004.3 |
| 20260504221528 | 69 | 190 | 8.7 | 20.9 | 0.00 | 0.00 | 0.00 | 35 | 1004.2 |
| 20260504220040 | 70 | 146 | 9.6 | 25.2 | 0.00 | 0.00 | 0.00 | 33 | 1004.0 |
| 20260504214524 | 72 | 167 | 6.1 | 20.9 | 0.00 | 0.00 | 0.00 | 30 | 1004.1 |
| 20260504213021 | 73 | 253 | 3.5 | 17.4 | 0.00 | 0.00 | 0.00 | 28 | 1004.0 |
| 20260504211520 | 73 | 200 | 5.2 | 14.8 | 0.00 | 0.00 | 0.00 | 27 | 1004.0 |
| 20260504210018 | 74 | 240 | 4.3 | 14.8 | 0.00 | 0.00 | 0.00 | 27 | 1003.9 |
| 20260504204521 | 74 | 104 | 5.2 | 13.9 | 0.00 | 0.00 | 0.00 | 26 | 1004.0 |
| 20260504203013 | 74 | 244 | 4.3 | 12.2 | 0.00 | 0.00 | 0.00 | 26 | 1004.0 |
| 20260504201510 | 73 | 169 | 7.0 | 19.1 | 0.00 | 0.00 | 0.00 | 26 | 1004.3 |
| 20260504200009 | 73 | 298 | 12.2 | 26.9 | 0.00 | 0.01 | 0.00 | 26 | 1004.3 |
| 20260504194507 | 72 | 206 | 7.8 | 20.9 | 0.00 | 0.01 | 0.00 | 25 | 1004.3 |
| 20260504193005 | 73 | 243 | 7.8 | 19.1 | 0.00 | 0.01 | 0.00 | 25 | 1004.3 |
| 20260504191504 | 72 | 205 | 7.8 | 29.5 | 0.00 | 0.01 | 0.00 | 25 | 1004.3 |
| 20260504190109 | 73 | 167 | 5.2 | 19.1 | 0.00 | 0.01 | 0.00 | 25 | 1004.4 |
| 20260504184558 | 73 | 65 | 3.5 | 16.5 | 0.00 | 0.01 | 0.00 | 25 | 1004.4 |
| 20260504183101 | 72 | 293 | 6.1 | 19.1 | 0.00 | 0.01 | 0.00 | 26 | 1004.6 |
| 20260504181552 | 72 | 198 | 9.6 | 20.0 | 0.00 | 0.01 | 0.00 | 26 | 1004.8 |
| 20260504180130 | 71 | 153 | 7.8 | 16.5 | 0.00 | 0.01 | 0.00 | 27 | 1004.8 |
| 20260504174547 | 70 | 177 | 6.1 | 19.1 | 0.00 | 0.01 | 0.00 | 28 | 1005.0 |
| 20260504173046 | 70 | 182 | 7.0 | 19.1 | 0.00 | 0.01 | 0.00 | 29 | 1005.0 |
| 20260504171545 | 70 | 196 | 5.2 | 20.0 | 0.00 | 0.01 | 0.00 | 29 | 1005.0 |
| 20260504081506 | 47 | 198 | 1.7 | 4.3 | 0.00 | 0.01 | 0.00 | 53 | 1008.1 |